Time,TemperatureF,DewpointF,PressureIn,WindDirection,WindDirectionDegrees,WindSpeedMPH,WindSpeedGustMPH,Humidity,HourlyPrecipIn,Conditions,Clouds,dailyrainin,SoftwareType,DateUTC
2013-07-17 00:00:00,78.0,-99.9,-100.00,SSE,156,2.0,3.0,-999,0.00,,,0.00,,2013-07-17 05:00:00,
2013-07-17 00:43:00,78.0,-99.9,-100.00,SSE,156,2.0,3.0,-999,0.00,,,0.00,,2013-07-17 05:43:00,
2013-07-17 00:52:00,78.0,-99.9,-100.00,SSE,156,2.0,3.0,-999,0.00,,,0.00,,2013-07-17 05:52:00,
2013-07-17 01:00:00,77.0,-99.9,-100.00,South,172,3.0,4.0,-999,0.00,,,0.00,,2013-07-17 06:00:00,
2013-07-17 01:43:00,77.0,-99.9,-100.00,South,172,3.0,4.0,-999,0.00,,,0.00,,2013-07-17 06:43:00,
2013-07-17 01:52:00,77.0,-99.9,-100.00,South,172,3.0,4.0,-999,0.00,,,0.00,,2013-07-17 06:52:00,
2013-07-17 02:00:00,75.0,-99.9,-100.00,South,182,2.0,2.0,-999,0.00,,,0.00,,2013-07-17 07:00:00,
2013-07-17 02:42:00,75.0,-99.9,-100.00,South,182,2.0,2.0,-999,0.00,,,0.00,,2013-07-17 07:42:00,
2013-07-17 02:52:00,75.0,-99.9,-100.00,South,182,2.0,2.0,-999,0.00,,,0.00,,2013-07-17 07:52:00,
2013-07-17 03:00:00,74.0,-99.9,-100.00,SSW,205,2.0,4.0,-999,0.00,,,0.00,,2013-07-17 08:00:00,
2013-07-17 03:43:00,74.0,-99.9,-100.00,SSW,205,2.0,4.0,-999,0.00,,,0.00,,2013-07-17 08:43:00,
2013-07-17 03:53:00,74.0,-99.9,-100.00,SSW,205,2.0,4.0,-999,0.00,,,0.00,,2013-07-17 08:53:00,
2013-07-17 04:00:00,73.0,-99.9,-100.00,SSW,192,1.0,3.0,-999,0.00,,,0.00,,2013-07-17 09:00:00,
2013-07-17 04:43:00,73.0,-99.9,-100.00,SSW,192,1.0,3.0,-999,0.00,,,0.00,,2013-07-17 09:43:00,
2013-07-17 04:52:00,73.0,-99.9,-100.00,SSW,192,1.0,3.0,-999,0.00,,,0.00,,2013-07-17 09:52:00,
2013-07-17 05:00:00,74.0,-99.9,-100.00,SW,224,4.0,5.0,-999,0.00,,,0.00,,2013-07-17 10:00:00,
2013-07-17 05:43:00,74.0,-99.9,-100.00,SW,224,4.0,5.0,-999,0.00,,,0.00,,2013-07-17 10:43:00,
2013-07-17 05:52:00,74.0,-99.9,-100.00,SW,224,4.0,5.0,-999,0.00,,,0.00,,2013-07-17 10:52:00,
2013-07-17 06:00:00,72.0,-99.9,-100.00,SSE,152,2.0,3.0,-999,0.00,,,0.00,,2013-07-17 11:00:00,
2013-07-17 06:43:00,72.0,-99.9,-100.00,SSE,152,2.0,3.0,-999,0.00,,,0.00,,2013-07-17 11:43:00,
2013-07-17 06:52:00,72.0,-99.9,-100.00,SSE,152,2.0,3.0,-999,0.00,,,0.00,,2013-07-17 11:52:00,
2013-07-17 07:00:00,73.0,-99.9,-100.00,SE,124,2.0,3.0,-999,0.00,,,0.00,,2013-07-17 12:00:00,
2013-07-17 07:43:00,73.0,-99.9,-100.00,SE,124,2.0,3.0,-999,0.00,,,0.00,,2013-07-17 12:43:00,
2013-07-17 07:53:00,73.0,-99.9,-100.00,SE,124,2.0,3.0,-999,0.00,,,0.00,,2013-07-17 12:53:00,
2013-07-17 08:00:00,78.0,-99.9,-100.00,South,171,2.0,5.0,-999,0.00,,,0.00,,2013-07-17 13:00:00,
2013-07-17 08:43:00,78.0,-99.9,-100.00,South,171,2.0,5.0,-999,0.00,,,0.00,,2013-07-17 13:43:00,
2013-07-17 08:53:00,78.0,-99.9,-100.00,South,171,2.0,5.0,-999,0.00,,,0.00,,2013-07-17 13:53:00,
2013-07-17 09:00:00,84.0,-99.9,-100.00,WSW,256,0.0,3.0,-999,0.00,,,0.00,,2013-07-17 14:00:00,
2013-07-17 09:43:00,84.0,-99.9,-100.00,WSW,256,0.0,3.0,-999,0.00,,,0.00,,2013-07-17 14:43:00,
2013-07-17 09:52:00,84.0,-99.9,-100.00,WSW,256,0.0,3.0,-999,0.00,,,0.00,,2013-07-17 14:52:00,
2013-07-17 12:00:00,89.0,-99.9,-100.00,North,7,3.0,5.0,-999,0.00,,,0.00,,2013-07-17 17:00:00,
2013-07-17 12:43:00,89.0,-99.9,-100.00,North,7,3.0,5.0,-999,0.00,,,0.00,,2013-07-17 17:43:00,
2013-07-17 12:52:00,89.0,-99.9,-100.00,North,7,3.0,5.0,-999,0.00,,,0.00,,2013-07-17 17:52:00,
2013-07-17 13:00:00,88.0,-99.9,-100.00,North,355,1.0,4.0,-999,0.00,,,0.00,,2013-07-17 18:00:00,
2013-07-17 13:43:00,88.0,-99.9,-100.00,North,355,1.0,4.0,-999,0.00,,,0.00,,2013-07-17 18:43:00,
2013-07-17 13:52:00,88.0,-99.9,-100.00,North,355,1.0,4.0,-999,0.00,,,0.00,,2013-07-17 18:52:00,
2013-07-17 14:00:00,93.0,-99.9,-100.00,NNW,346,3.0,7.0,-999,0.00,,,0.00,,2013-07-17 19:00:00,
2013-07-17 14:43:00,93.0,-99.9,-100.00,NNW,346,3.0,7.0,-999,0.00,,,0.00,,2013-07-17 19:43:00,
2013-07-17 14:53:00,93.0,-99.9,-100.00,NNW,346,3.0,7.0,-999,0.00,,,0.00,,2013-07-17 19:53:00,
2013-07-17 15:00:00,94.0,-99.9,-100.00,NE,35,1.0,4.0,-999,0.00,,,0.00,,2013-07-17 20:00:00,
2013-07-17 15:43:00,94.0,-99.9,-100.00,NE,35,1.0,4.0,-999,0.00,,,0.00,,2013-07-17 20:43:00,
2013-07-17 15:53:00,94.0,-99.9,-100.00,NE,35,1.0,4.0,-999,0.00,,,0.00,,2013-07-17 20:53:00,
2013-07-17 16:00:00,91.0,-99.9,-100.00,ESE,119,3.0,8.0,-999,0.00,,,0.00,,2013-07-17 21:00:00,
2013-07-17 16:42:00,91.0,-99.9,-100.00,ESE,119,3.0,8.0,-999,0.00,,,0.00,,2013-07-17 21:42:00,
2013-07-17 16:53:00,91.0,-99.9,-100.00,ESE,119,3.0,8.0,-999,0.00,,,0.00,,2013-07-17 21:53:00,
2013-07-17 17:00:00,92.0,-99.9,-100.00,SE,130,4.0,8.0,-999,0.00,,,0.00,,2013-07-17 22:00:00,
2013-07-17 17:43:00,92.0,-99.9,-100.00,SE,130,4.0,8.0,-999,0.00,,,0.00,,2013-07-17 22:43:00,
2013-07-17 17:53:00,92.0,-99.9,-100.00,SE,130,4.0,8.0,-999,0.00,,,0.00,,2013-07-17 22:53:00,
2013-07-17 18:00:00,91.0,-99.9,-100.00,SE,125,4.0,9.0,-999,0.00,,,0.00,,2013-07-17 23:00:00,
2013-07-17 18:43:00,91.0,-99.9,-100.00,SE,125,4.0,9.0,-999,0.00,,,0.00,,2013-07-17 23:43:00,
2013-07-17 18:52:00,91.0,-99.9,-100.00,SE,125,4.0,9.0,-999,0.00,,,0.00,,2013-07-17 23:52:00,
2013-07-17 19:00:00,90.0,-99.9,-100.00,SE,136,3.0,5.0,-999,0.00,,,0.00,,2013-07-18 00:00:00,
2013-07-17 19:43:00,90.0,-99.9,-100.00,SE,136,3.0,5.0,-999,0.00,,,0.00,,2013-07-18 00:43:00,
2013-07-17 19:52:00,90.0,-99.9,-100.00,SE,136,3.0,5.0,-999,0.00,,,0.00,,2013-07-18 00:52:00,
2013-07-17 21:00:00,83.0,-99.9,-100.00,SW,223,4.0,7.0,-999,0.00,,,0.00,,2013-07-18 02:00:00,
2013-07-17 21:43:00,83.0,-99.9,-100.00,SW,223,4.0,7.0,-999,0.00,,,0.00,,2013-07-18 02:43:00,
2013-07-17 21:52:00,83.0,-99.9,-100.00,SW,223,4.0,7.0,-999,0.00,,,0.00,,2013-07-18 02:52:00,
2013-07-17 22:00:00,81.0,-99.9,-100.00,SSW,212,3.0,6.0,-999,0.00,,,0.00,,2013-07-18 03:00:00,
2013-07-17 22:43:00,81.0,-99.9,-100.00,SSW,212,3.0,6.0,-999,0.00,,,0.00,,2013-07-18 03:43:00,
2013-07-17 22:52:00,81.0,-99.9,-100.00,SSW,212,3.0,6.0,-999,0.00,,,0.00,,2013-07-18 03:52:00,
2013-07-17 23:00:00,79.0,-99.9,-100.00,SSW,209,4.0,6.0,-999,0.00,,,0.00,,2013-07-18 04:00:00,
2013-07-17 23:43:00,79.0,-99.9,-100.00,SSW,209,4.0,6.0,-999,0.00,,,0.00,,2013-07-18 04:43:00,
2013-07-17 23:52:00,79.0,-99.9,-100.00,SSW,209,4.0,6.0,-999,0.00,,,0.00,,2013-07-18 04:52:00,